Location: Most
(50.5133°N, 13.6207°E)
Time: 19:29:57
(UTC+02:00)

ISS - Pass Details

Date: 21 May 2019
Orbit: 407 x 410 km, 51.6° (Epoch: 23 May)

Event Time Altitude Azimuth Distance (km) Brightness Sun altitude
Rises 01:59:38 0° 286° (WNW) 2,339 0.1 -18.3°
Reaches altitude 10° 02:01:44 10° 283° (WNW) 1,476 -1.0 -18.2°
Enters shadow 02:04:28 52° 249° (WSW) 519 -3.6 -18.1°
